Overview Statistics Trail Chart Weather Telemetry Raw packets
 

This is the latest recevied weather packets stored in our database for station/object OE5MMP-13. If no packets are shown the sender has not sent any weather packets the latest 10 day(s).

<< 54 55 56 57 58 >>
Time Temp. Humidity Pressure Rain* Wind** Luminosity Snow
1787849004 26.67° C 57% 1015.3 hPa 0 mm - 47 W/m² -
1787848404 26.67° C 56% 1015.4 hPa 0 mm - 49 W/m² -
1787847804 27.22° C 56% 1015.5 hPa 0 mm - 60 W/m² -
1787847204 27.22° C 55% 1015.5 hPa 0 mm - 73 W/m² -
1787846604 27.22° C 55% 1015.5 hPa 0 mm - 90 W/m² -
1787846004 27.78° C 56% 1015.5 hPa 0 mm - 142 W/m² -
1787845404 27.78° C 55% 1015.6 hPa 0 mm - 181 W/m² -
1787844804 27.78° C 56% 1015.8 hPa 0 mm - 231 W/m² -
1787844204 27.78° C 54% 1015.8 hPa 0 mm - 256 W/m² -
1787843603 27.78° C 54% 1015.8 hPa 0 mm - 216 W/m² -
1787843004 28.33° C 55% 1015.8 hPa 0 mm - 275 W/m² -
1787842403 28.33° C 54% 1015.9 hPa 0 mm - 399 W/m² -
1787841803 28.33° C 55% 1016.1 hPa 0 mm - 415 W/m² -
1787841203 28.33° C 55% 1016 hPa 0 mm - 436 W/m² -
1787840603 28.33° C 55% 1016.1 hPa 0 mm - 441 W/m² -
1787840003 28.33° C 55% 1016.1 hPa 0 mm - 485 W/m² -
1787839403 28.33° C 56% 1016.2 hPa 0 mm - 528 W/m² -
1787838803 28.33° C 56% 1016.2 hPa 0 mm - 438 W/m² -
1787838203 28.33° C 55% 1016.2 hPa 0 mm - 544 W/m² -
1787837603 27.78° C 56% 1016.3 hPa 0 mm - 578 W/m² -
1787837003 27.78° C 57% 1016.3 hPa 0 mm - 600 W/m² -
1787836403 27.78° C 56% 1016.3 hPa 0 mm - 608 W/m² -
1787835803 27.78° C 58% 1016.4 hPa 0 mm - 643 W/m² -
1787835203 27.22° C 59% 1016.6 hPa 0 mm - 672 W/m² -
1787834603 26.67° C 58% 1016.6 hPa 0 mm - 661 W/m² -

* Rain latest hour (hover to see other rain measurements)
** Current wind speed in m/s (hover to see current wind gust speed)